Tracking 31011 objects as of 13-Jul-2025
HD Live streaming from Space Station
objects crossing your sky now

COSMOS 1996

Track COSMOS 1996 now!
10-day predictions
COSMOS 1996 is classified as:


NORAD ID: 19787
Int'l Code: 1989-009C
Perigee: 1,411.9 km
Apogee: 1,424.2 km
Inclination: 82.6 °
Period: 114.0 minutes
Semi major axis: 7789 km
RCS: 1.1678 m2 (large)
Launch date: February 10, 1989
Source: Commonwealth of Independent States (former USSR) (CIS)
Launch site: PLESETSK MISSILE AND SPACE COMPLEX (PKMTR)
Your satellite tracking list
Your tracking list is empty




NASA's NSSDC Master Catalog

Two Line Element Set (TLE):
1 19787U 89009C   25193.53212307  .00000024  00000-0  72419-4 0  9994
2 19787  82.6111 222.1312 0007876 100.7463  67.3503 12.62915561678558
Source of the keplerian elements: AFSPC